Location: Aiyede
(8.4833°N, 4.4500°E)
Time: 09:26:18
(UTC+00:00)

Cosmos 1766 - Pass Details

Date: 24 September 2020
Orbit: 522 x 543 km, 82.5° (Epoch: 22 October)

Event Time Altitude Azimuth Distance (km) Brightness Sun altitude
Rises 18:18:24 0° 158° (SSE) 2,648 6.6 -11.1°
Reaches altitude 10° 18:20:56 10° 141° (SE) 1,762 5.5 -11.7°
Maximum altitude 18:23:51 21° 92° (E) 1,236 4.5 -12.5°
Enters shadow 18:25:53 14° 54° (NE) 1,517 5.1 -13.0°
Exits shadow 18:28:31 - 31° (NNE) 2,364 6.3 -13.6°
Sets 18:29:19 0° 27° (NNE) 2,663 6.6 -13.8°
